Grand Rapids, MI

12:08 PM EDT on May 27, 2018 (GMT -0400)
Gerald R. Ford International

Weather History for KGRR - February, 2013

Change the Weather History Date:

Sunday, February 10, 2013

  Actual Average Record
Temperature  
Mean Temperature 29 °F 26 °F  
Max Temperature 42 °F 32 °F 61 °F (2009)
Min Temperature 15 °F 19 °F -21 °F (1899)
Degree Days  
Heating Degree Days 36 39  
Month to date heating degree days 460 398  
Since 1 July heating degree days 3826 4105  
Cooling Degree Days 0 0  
Month to date cooling degree days 0 0  
Year to date cooling degree days 0 0  
Moisture  
Dew Point 25 °F    
Average Humidity 78    
Maximum Humidity 92    
Minimum Humidity 64    
Precipitation  
Precipitation 0.14 in 0.06 in 0.99 in (1966)
Month to date precipitation 1.26 0.57  
Year to date precipitation 5.27 2.66  
Snow  
Snow 0.00 in 0.60 in 6.70 in (1981)
Month to date snowfall 18.4 5.8  
Since 1 July snowfall 42.9 55.8  
Snow Depth 8.00 in    
Sea Level Pressure  
Sea Level Pressure 29.92 in    
Wind  
Wind Speed 12 mph (ESE)    
Max Wind Speed 23 mph    
Max Gust Speed 29 mph    
Visibility 8 miles    
Events Rain    
T = Trace of Precipitation, MM = Missing Value Source: NWS Daily Summary

Daily Weather History Graph

Daily Weather History Graph

Search for Another Location

Airport or City:

Astronomy

Feb. 10, 2013 Rise Set
Actual Time 7:45 AM EST 6:07 PM EST
Civil Twilight 7:16 AM EST 6:36 PM EST
Nautical Twilight 6:43 AM EST 7:10 PM EST
Astronomical Twilight 6:10 AM EST 7:43 PM EST
Moon 7:33 AM EST (2/10) 6:59 PM EST (2/10)
Length of Visible Light 11h 20m
Length of Day
10h 21m
New Moon, 0% of the Moon is Illuminated
Feb 10
New Moon
Feb 17
First Quarter
Feb 25
Full
Mar 4
Last Quarter
Mar 11
New

Hourly Weather History & Observations

Time (EST) Temp. Windchill Dew Point Humidity Pressure Visibility Wind Dir Wind Speed Gust Speed Precip Events Conditions
12:53 AM 19.0 °F 10.0 °F 14.0 °F 81% 30.21 in 9.0 mi East 6.9 mph - N/A   Clear
1:53 AM 18.0 °F 7.7 °F 14.0 °F 84% 30.19 in 8.0 mi East 8.1 mph - N/A   Clear
2:53 AM 18.0 °F 7.7 °F 14.0 °F 84% 30.18 in 8.0 mi East 8.1 mph - N/A   Clear
3:53 AM 16.0 °F 6.3 °F 12.0 °F 84% 30.17 in 7.0 mi East 6.9 mph - N/A   Clear
4:53 AM 18.0 °F 9.8 °F 14.0 °F 84% 30.16 in 7.0 mi East 5.8 mph - N/A   Clear
5:53 AM 17.1 °F 7.6 °F 12.9 °F 84% 30.15 in 6.0 mi East 6.9 mph - N/A   Partly Cloudy
6:53 AM 17.1 °F 5.8 °F 14.0 °F 88% 30.14 in 6.0 mi East 9.2 mph - N/A   Mostly Cloudy
7:53 AM 19.0 °F 8.2 °F 14.0 °F 81% 30.12 in 6.0 mi East 9.2 mph - N/A   Haze
8:53 AM 23.0 °F 13.9 °F 18.0 °F 81% 30.08 in 7.0 mi East 8.1 mph - N/A   Mostly Cloudy
9:09 AM 24.8 °F 14.6 °F 19.4 °F 80% 30.03 in 7.0 mi East 10.4 mph - 0.00 in   Light Freezing Drizzle
9:27 AM 26.6 °F 16.2 °F 19.4 °F 74% 30.02 in 7.0 mi ESE 11.5 mph - 0.00 in   Mostly Cloudy
9:53 AM 27.0 °F 16.7 °F 19.9 °F 75% 30.06 in 8.0 mi ESE 11.5 mph - 0.00 in   Overcast
10:28 AM 28.4 °F 19.7 °F 21.2 °F 74% 30.02 in 8.0 mi SE 9.2 mph - N/A   Overcast
10:53 AM 30.0 °F 22.4 °F 21.9 °F 72% 30.05 in 10.0 mi ESE 8.1 mph - N/A   Overcast
11:53 AM 33.1 °F 23.9 °F 24.1 °F 70% 30.01 in 10.0 mi ESE 12.7 mph - N/A   Overcast
12:53 PM 35.1 °F 26.9 °F 25.0 °F 67% 29.96 in 10.0 mi ESE 11.5 mph - N/A   Overcast
1:53 PM 36.0 °F 27.5 °F 27.0 °F 70% 29.92 in 10.0 mi ESE 12.7 mph - 0.00 in   Overcast
2:53 PM 36.0 °F 28.0 °F 28.9 °F 76% 29.85 in 9.0 mi East 11.5 mph - 0.00 in   Overcast
3:53 PM 37.0 °F 29.3 °F 30.0 °F 76% 29.83 in 6.0 mi ESE 11.5 mph - 0.01 in Rain Light Rain
4:53 PM 37.0 °F 27.4 °F 30.9 °F 79% 29.75 in 7.0 mi ESE 17.3 mph - 0.04 in Rain Light Rain
5:53 PM 39.0 °F 29.9 °F 33.1 °F 79% 29.72 in 8.0 mi ESE 17.3 mph 26.5 mph 0.03 in Rain Light Rain
6:33 PM 39.2 °F 30.5 °F 33.8 °F 81% 29.68 in 10.0 mi SE 16.1 mph - 0.01 in   Overcast
6:53 PM 39.9 °F 31.4 °F 34.0 °F 79% 29.70 in 10.0 mi SE 16.1 mph 25.3 mph 0.01 in   Overcast
7:53 PM 39.9 °F 30.0 °F 36.0 °F 86% 29.69 in 6.0 mi SSE 21.9 mph - 0.03 in Rain Light Rain
8:37 PM 39.2 °F 29.6 °F 37.4 °F 93% 29.63 in 4.0 mi SSE 19.6 mph - 0.01 in Rain Light Rain
8:53 PM 39.9 °F 30.0 °F 37.0 °F 89% 29.65 in 3.0 mi SSE 21.9 mph - 0.02 in Rain Rain
9:53 PM 39.9 °F 32.1 °F 37.0 °F 89% 29.64 in 10.0 mi South 13.8 mph - 0.03 in   Overcast
10:03 PM 39.2 °F 30.8 °F 37.4 °F 93% 29.61 in 10.0 mi South 15.0 mph - N/A   Overcast
10:53 PM 41.0 °F 34.3 °F 37.9 °F 89% 29.61 in 8.0 mi South 11.5 mph - N/A   Overcast
11:53 PM 41.0 °F 33.1 °F 39.0 °F 93% 29.58 in 7.0 mi South 15.0 mph - N/A   Overcast